TimeEST,TemperatureF,Dew PointF,Humidity,Sea Level PressureIn,VisibilityMPH,Wind Direction,Wind SpeedMPH,Gust SpeedMPH,PrecipitationIn,Events,Conditions,WindDirDegrees,DateUTC
12:53 AM,34.0,26.1,73,30.16,10.0,WSW,5.8,-,N/A,,Clear,240,2014-02-20 05:53:00
1:53 AM,27.0,21.9,81,30.16,8.0,Calm,Calm,-,N/A,,Clear,0,2014-02-20 06:53:00
2:53 AM,28.9,24.1,82,30.15,8.0,Calm,Calm,-,N/A,,Clear,0,2014-02-20 07:53:00
3:53 AM,24.1,21.9,91,30.18,5.0,South,3.5,-,N/A,,Clear,190,2014-02-20 08:53:00
4:53 AM,26.1,24.1,92,30.19,5.0,SE,3.5,-,N/A,,Clear,140,2014-02-20 09:53:00
5:53 AM,28.0,25.0,88,30.20,8.0,West,3.5,-,N/A,,Clear,260,2014-02-20 10:53:00
6:53 AM,25.0,24.1,96,30.20,4.0,Calm,Calm,-,N/A,,Clear,0,2014-02-20 11:53:00
7:06 AM,25.0,23.0,92,30.16,2.0,Calm,Calm,-,N/A,,Clear,0,2014-02-20 12:06:00
7:45 AM,28.0,25.0,88,30.16,4.0,Calm,Calm,-,N/A,,Clear,0,2014-02-20 12:45:00
7:53 AM,27.0,25.0,92,30.21,4.0,Calm,Calm,-,N/A,,Clear,0,2014-02-20 12:53:00
8:20 AM,28.9,26.1,89,30.14,2.0,Calm,Calm,-,N/A,,Clear,0,2014-02-20 13:20:00
8:42 AM,30.9,27.0,85,30.15,4.0,Calm,Calm,-,N/A,,Clear,0,2014-02-20 13:42:00
8:53 AM,30.0,27.0,88,30.18,2.5,NW,4.6,-,N/A,,Clear,310,2014-02-20 13:53:00
9:03 AM,30.9,27.0,85,30.14,3.0,Calm,Calm,-,N/A,,Clear,0,2014-02-20 14:03:00
9:20 AM,28.9,25.0,85,30.14,2.5,WNW,3.5,-,N/A,,Clear,300,2014-02-20 14:20:00
9:32 AM,30.0,26.1,85,30.14,3.0,WSW,3.5,-,N/A,,Clear,250,2014-02-20 14:32:00
9:43 AM,30.0,26.1,85,30.14,2.5,West,4.6,-,N/A,,Clear,270,2014-02-20 14:43:00
9:53 AM,30.9,26.1,82,30.18,2.5,WSW,5.8,-,N/A,,Haze,250,2014-02-20 14:53:00
10:02 AM,32.0,27.0,82,30.13,4.0,WSW,3.5,-,N/A,,Haze,240,2014-02-20 15:02:00
10:53 AM,39.0,26.1,60,30.15,9.0,SW,6.9,-,N/A,,Clear,230,2014-02-20 15:53:00
11:53 AM,44.1,23.0,43,30.09,10.0,SSE,12.7,21.9,N/A,,Partly Cloudy,160,2014-02-20 16:53:00
12:53 PM,44.1,25.0,47,30.06,10.0,South,18.4,28.8,N/A,,Scattered Clouds,180,2014-02-20 17:53:00
1:53 PM,43.0,28.0,56,30.06,8.0,SSW,11.5,18.4,0.00,Rain,Light Rain,200,2014-02-20 18:53:00
2:53 PM,45.0,25.0,46,30.02,10.0,South,6.9,-,0.01,,Mostly Cloudy,170,2014-02-20 19:53:00
3:53 PM,45.0,24.1,44,30.01,10.0,South,15.0,21.9,N/A,,Mostly Cloudy,170,2014-02-20 20:53:00
4:53 PM,45.0,24.1,44,30.00,10.0,SSE,8.1,-,N/A,,Scattered Clouds,160,2014-02-20 21:53:00
5:53 PM,44.1,25.0,47,30.00,10.0,South,8.1,-,N/A,,Clear,180,2014-02-20 22:53:00
6:53 PM,44.1,25.0,47,29.99,10.0,South,6.9,-,N/A,,Clear,180,2014-02-20 23:53:00
7:53 PM,43.0,26.1,51,29.97,10.0,South,8.1,-,N/A,,Partly Cloudy,190,2014-02-21 00:53:00
8:53 PM,44.1,27.0,51,29.95,10.0,South,15.0,-,N/A,,Scattered Clouds,190,2014-02-21 01:53:00
9:53 PM,42.1,30.0,62,29.92,10.0,South,11.5,-,N/A,,Mostly Cloudy,190,2014-02-21 02:53:00
10:53 PM,39.9,30.0,68,29.91,10.0,NW,3.5,-,N/A,,Partly Cloudy,310,2014-02-21 03:53:00
11:53 PM,44.1,32.0,63,29.86,10.0,Calm,Calm,-,N/A,,Clear,0,2014-02-21 04:53:00